Погода в Драхтене

Нидерланды     53°06′10″N   6°05′01″E
темп.,
°C
ветер,
м/с
пор.,
м/с
влажн.,
%
обл.,
%
осадки,
мм/ч
давл.,
гПа
погр.,
м
27 января, чт
чт2701:00+6зюз91784100 0.0 1023782
04:00+6зюз91786100 0.0 1020661
07:00+7зюз91691100 1.2 1019806
10:00+8з91692100 0.1 1019791
13:00+8зсз81378100 0.3 10191174
16:00+7зсз813758 0.1 1020987
19:00+6зсз9158250 0.3 10221121
22:00+5сз915795 0.0 1024974
28 января, пт
пт2801:00+4сз915755 0.0 10271044
04:00+4сз814695 0.0 1029814
07:00+4сз613715 0.0 1031587
10:00+4зсз398319 0.0 1033381
13:00+7зсз67685 0.1 10331067
16:00+6зюз5975100 0.0 1032627
19:00+5юз61384100 0.0 1030578
22:00+6юз71487100 0.0 1028710
29 января, сб
сб2901:00+7юз81587100 0.0 1025557
04:00+8зюз81590100 0.0 1023683
07:00+9зюз81590100 0.0 1021681
10:00+9зюз91590100 0.0 1020830
13:00+11зюз10188475 0.0 1018924
16:00+11зюз12218150 0.0 10151094
19:00+10зсз132070100 0.1 10161563
22:00+7сз12186610 0.1 10201650
30 января, вс
вс3001:00+6зсз1118707 0.1 10221392
04:00+5зсз12206718 0.0 10241463
07:00+5сз12196984 0.1 10251351
10:00+6сз10167411 0.0 10271241
13:00+7сз9147168 0.1 10291442
16:00+6сз710755 0.1 10301072
19:00+4сз497499 0.2 1029435
22:00+3зсз3878100 0.1 1028172
31 января, пн
пн3101:00+3з3581100 0.2 1026103
04:00+3юз3480100 0.1 102381
07:00+3юз3582100 0.1 1021120
10:00+1ююз4799100 1.3 1020251
13:00+2зюз3599100 3.8 1019408
16:00+3з2690100 0.4 1019530
19:00+3з3787100 0.4 1019295
22:00+4зсз4108894 0.2 1020446